STARLINK-31425, 59253

Orbit data source: Space-Track

STARLINK-31425, 59253 is a payload satellite owned by SpaceX/Seattle (US) in LEO that was launched on Sat, 16 Mar 2024 UTC via an FALCON 9 launch vehicle from the Air Force Eastern Test Range (AFETR). Payload-class satellites include a variety of spacecraft equipped with specific instruments for various scientific and technological missions. These include communications satellites like Starlink; space stations such as the ISS; scientific satellites like the Hubble; Earth observation satellites from companies like Planet Labs, Umbra, and HawkEye 360; GPS; miniature CubeSats for education and research; and military/defense satellites.

Loading next visibility...
Identifier
59253, 2024-049Y
Orbit
LEO
Country
Flag of USUS
Related business
Manufacturer
SpaceX/Seattle
Mission
Operational Commercial Communications
Bus & Motor
STARLINK V2M, Unknown motor
Mass
730 kg wet, ~700 kg dry
Launch date (UTC)
2024-03-16 (2 years ago)
Launch vehicle
FALCON 9
Launch site
Air Force Eastern Test Range (AFETR)
Object type
Payload
Rocket body
Debris
Shape & HBR
Box + 2 Pan, 17.7 m
Radar Cross Section
33.884 m², Large (>1 m²)

Expand to show TLE details & history
Last TLE update: 2 days ago

TLE from 2 days ago
0 STARLINK-31425
1 59253U 24049Y   26171.31636222  .00000283  00000-0  19795-4 0  9993
2 59253  43.0015 283.7712 0001474 278.7537  81.3148 15.27576164128093
Epoch: 2026-06-20T07:35Z
TLE epoch observation values (Epoch: 2026-06-20T07:35:33.695Z)
Latitude
-0.00001°
Longitude
-98.65194°
Altitude
482.684 km
Speed
7.626 km/s
True Right ascension
18h 55m 05s
True Declination
0° 00' 00"
Sunlit
Object was in full shadow at epoch
Visualization orbit readout
Latitude
Unknown
Longitude
Unknown
Altitude
Unknown
Speed
Unknown
Apparent Right ascension
Unknown
Apparent Declination
Unknown
Sunlit
N/A
Visualization observer readout
Local Sidereal Time
23:08:37
Azimuth
Unknown
Elevation
Unknown
Doppler factor
Unknown
Orbital elements
Apogee altitude
486.017 km
Perigee altitude
483.994 km
Semi-major axis
6,863.143 km
Eccentricity
0.00015
Inclination
43.0015°
RAAN
283.7712°
Arg. of periapsis
278.7537°
True anomaly
81.3315°
Mean anomaly
81.3148°
Eccentric anomaly
81.32315°
Mean motion
3.81732 °/min
Orbital period
94.31 mins
BSTAR
0.000019795
Loading maneuver chart data...
Computing Atmospheric mass density...
Loading historical data...
Loading historical data...
Loading historical data...
Loading historical data...
Loading historical data...
Loading historical data...
Loading historical data...

Documentation

Showing up to 5 results
|